Location: Unspecified
(50.7693°N, 0.0000°E)
Time: 19:43:23
(UTC+00:00)

Vanguard 1 Rocket - Pass Details

Date: 29 June 2019
Orbit: 652 x 4224 km, 34.3° (Epoch: 21 August)

Event Time Altitude Azimuth Distance (km) Brightness Sun altitude
Rises 13:50:11 0° 212° (SSW) 8,459 12.8 55.6°
Reaches altitude 10° 13:57:28 10° 204° (SSW) 7,358 12.7 54.7°
Maximum altitude 14:16:12 30° 155° (SSE) 4,929 11.6 52.4°
Drops below altitude 10° 14:29:15 10° 102° (ESE) 5,153 11.1 50.6°
Sets 14:33:07 0° 92° (E) 5,700 11.1 50.1°
